• în Republica Moldova
  • Lista ţărilor
  • Pe 7 zile
  • Temperatura apei
  • Hartă satelitară
  • Meteo pe hartă
  • Widget-uri
  • user-avatar
    Intrare

    Meteo pe oră la Durres

    Astăzi, 19 Octombrie, Joi

    Timp Temperatura Precipitaţii Vânt Presiune Umiditate
    00:00 +21°C° 0 mm 1 m/s 762 mmHg 50%
    01:00 +20°C° 0 mm 1 m/s 762 mmHg 49%
    02:00 +20°C° 0 mm 1 m/s 762 mmHg 49%
    03:00 +20°C° 0 mm 1 m/s 762 mmHg 49%
    04:00 +19°C° 0 mm 1 m/s 762 mmHg 49%
    05:00 +19°C° 0 mm 2 m/s 762 mmHg 49%
    06:00 +19°C° 0 mm 2 m/s 762 mmHg 49%
    07:00 +20°C° 0 mm 2 m/s 762 mmHg 49%
    08:00 +23°C° 0 mm 2 m/s 762 mmHg 45%
    09:00 +25°C° 0 mm 2 m/s 762 mmHg 41%
    10:00 +26°C° 0 mm 2 m/s 762 mmHg 38%
    11:00 +27°C° 0 mm 2 m/s 762 mmHg 37%
    12:00 +27°C° 0 mm 3 m/s 762 mmHg 37%
    13:00 +28°C° 0 mm 3 m/s 762 mmHg 37%
    14:00 +27°C° 0 mm 3 m/s 762 mmHg 42%
    15:00 +26°C° 0 mm 3 m/s 761 mmHg 47%
    16:00 +25°C° 0 mm 3 m/s 761 mmHg 52%
    17:00 +22°C° 0 mm 3 m/s 761 mmHg 59%
    18:00 +21°C° 0 mm 2 m/s 762 mmHg 67%
    19:00 +19°C° 0 mm 2 m/s 762 mmHg 74%
    20:00 +19°C° 0 mm 2 m/s 762 mmHg 73%
    21:00 +18°C° 0 mm 2 m/s 762 mmHg 73%
    22:00 +18°C° 0 mm 3 m/s 762 mmHg 72%
    23:00 +18°C° 0 mm 3 m/s 762 mmHg 72%

    Mâine, 20 Octombrie, Vineri

    Timp Temperatura Precipitaţii Vânt Presiune Umiditate
    00:00 +18°C° 0 mm 3 m/s 762 mmHg 72%
    01:00 +17°C° 0 mm 2 m/s 762 mmHg 72%
    02:00 +17°C° 0 mm 3 m/s 762 mmHg 72%
    03:00 +17°C° 0 mm 3 m/s 762 mmHg 71%
    04:00 +17°C° 0 mm 3 m/s 762 mmHg 71%
    05:00 +17°C° 0 mm 3 m/s 762 mmHg 69%
    06:00 +18°C° 0 mm 3 m/s 762 mmHg 67%
    07:00 +18°C° 0 mm 3 m/s 763 mmHg 66%
    08:00 +20°C° 0 mm 2 m/s 763 mmHg 60%
    09:00 +23°C° 0 mm 2 m/s 763 mmHg 54%
    10:00 +25°C° 0 mm 2 m/s 763 mmHg 49%
    11:00 +25°C° 0 mm 2 m/s 763 mmHg 47%
    12:00 +26°C° 0 mm 2 m/s 763 mmHg 45%
    13:00 +26°C° 0 mm 2 m/s 763 mmHg 44%
    14:00 +25°C° 0 mm 2 m/s 762 mmHg 48%
    15:00 +25°C° 0 mm 2 m/s 762 mmHg 53%
    16:00 +24°C° 0 mm 2 m/s 762 mmHg 57%
    17:00 +21°C° 0 mm 2 m/s 763 mmHg 64%
    18:00 +21°C° 0 mm 1 m/s 763 mmHg 71%
    19:00 +19°C° 0 mm 1 m/s 763 mmHg 78%
    20:00 +19°C° 0 mm 1 m/s 764 mmHg 78%
    21:00 +19°C° 0 mm 1 m/s 764 mmHg 78%
    22:00 +18°C° 0 mm 1 m/s 764 mmHg 78%
    23:00 +18°C° 0 mm 1 m/s 764 mmHg 78%

    Poimâine, 21 Octombrie, Sâmbătă

    Timp Temperatura Precipitaţii Vânt Presiune Umiditate
    00:00 +18°C° 0 mm 1 m/s 764 mmHg 77%
    01:00 +18°C° 0 mm 1 m/s 764 mmHg 77%
    02:00 +16°C° 0 mm 1 m/s 764 mmHg 77%
    03:00 +16°C° 0 mm 1 m/s 764 mmHg 76%
    04:00 +16°C° 0 mm 1 m/s 763 mmHg 75%
    05:00 +16°C° 0 mm 1 m/s 763 mmHg 72%
    06:00 +18°C° 0 mm 1 m/s 763 mmHg 70%
    07:00 +18°C° 0 mm 1 m/s 764 mmHg 67%
    08:00 +20°C° 0 mm 1 m/s 764 mmHg 58%
    09:00 +21°C° 0 mm 2 m/s 764 mmHg 50%
    10:00 +24°C° 0 mm 2 m/s 764 mmHg 42%
    11:00 +25°C° 0 mm 2 m/s 763 mmHg 41%
    12:00 +25°C° 0 mm 3 m/s 763 mmHg 39%
    13:00 +26°C° 0 mm 4 m/s 762 mmHg 38%
    14:00 +25°C° 0 mm 4 m/s 762 mmHg 44%
    15:00 +23°C° 0 mm 4 m/s 762 mmHg 50%
    16:00 +22°C° 0 mm 4 m/s 762 mmHg 56%
    17:00 +20°C° 0 mm 4 m/s 762 mmHg 65%
    18:00 +19°C° 0 mm 3 m/s 762 mmHg 74%
    19:00 +17°C° 0 mm 3 m/s 763 mmHg 83%
    20:00 +17°C° 0 mm 3 m/s 763 mmHg 81%
    21:00 +17°C° 0 mm 2 m/s 763 mmHg 79%
    22:00 +17°C° 0 mm 2 m/s 763 mmHg 77%
    23:00 +16°C° 0 mm 2 m/s 763 mmHg 76%

    22 Octombrie, Duminică

    Timp Temperatura Precipitaţii Vânt Presiune Umiditate
    00:00 +16°C° 0 mm 2 m/s 763 mmHg 75%
    01:00 +16°C° 0 mm 2 m/s 763 mmHg 73%
    02:00 +16°C° 0 mm 2 m/s 762 mmHg 72%
    03:00 +15°C° 0 mm 2 m/s 762 mmHg 70%
    04:00 +15°C° 0 mm 1 m/s 762 mmHg 69%
    05:00 +16°C° 0 mm 1 m/s 762 mmHg 66%
    06:00 +16°C° 0 mm 1 m/s 762 mmHg 63%
    07:00 +16°C° 0 mm 1 m/s 762 mmHg 59%
    08:00 +19°C° 0 mm 1 m/s 762 mmHg 53%
    09:00 +22°C° 0 mm 1 m/s 762 mmHg 47%
    10:00 +24°C° 0 mm 1 m/s 761 mmHg 41%
    11:00 +24°C° 0 mm 1 m/s 761 mmHg 40%
    12:00 +25°C° 0 mm 2 m/s 760 mmHg 39%
    13:00 +25°C° 0 mm 2 m/s 760 mmHg 38%
    14:00 +25°C° 0 mm 2 m/s 760 mmHg 44%
    15:00 +24°C° 0 mm 1 m/s 759 mmHg 49%
    16:00 +23°C° 0 mm 1 m/s 759 mmHg 55%
    17:00 +22°C° 0 mm 1 m/s 759 mmHg 61%
    18:00 +20°C° 0 mm 1 m/s 759 mmHg 67%
    19:00 +18°C° 0 mm 2 m/s 759 mmHg 73%
    20:00 +18°C° 0 mm 2 m/s 759 mmHg 71%
    21:00 +18°C° 0 mm 2 m/s 759 mmHg 68%
    22:00 +18°C° 0 mm 3 m/s 759 mmHg 66%
    23:00 +18°C° 0 mm 3 m/s 758 mmHg 63%

    23 Octombrie, Luni

    Timp Temperatura Precipitaţii Vânt Presiune Umiditate
    00:00 +18°C° 0 mm 4 m/s 757 mmHg 61%
    01:00 +18°C° 0 mm 4 m/s 757 mmHg 58%
    02:00 +18°C° 0,7 mm 4 m/s 756 mmHg 57%
    03:00 +18°C° 0,7 mm 4 m/s 756 mmHg 56%
    04:00 +18°C° 0,7 mm 4 m/s 755 mmHg 55%
    05:00 +16°C° 1,3 mm 5 m/s 755 mmHg 60%
    06:00 +16°C° 1,3 mm 6 m/s 754 mmHg 65%
    07:00 +16°C° 1,3 mm 7 m/s 754 mmHg 70%
    08:00 +16°C° 1,4 mm 6 m/s 754 mmHg 71%
    09:00 +16°C° 1,4 mm 6 m/s 754 mmHg 71%
    10:00 +17°C° 1,4 mm 5 m/s 753 mmHg 72%
    11:00 +17°C° 0,4 mm 4 m/s 753 mmHg 73%
    12:00 +17°C° 0,4 mm 4 m/s 753 mmHg 74%
    13:00 +17°C° 0,4 mm 4 m/s 752 mmHg 75%
    14:00 +17°C° 0,3 mm 3 m/s 752 mmHg 74%
    15:00 +18°C° 0,3 mm 3 m/s 752 mmHg 72%
    16:00 +18°C° 0,3 mm 2 m/s 752 mmHg 70%
    17:00 +17°C° 0,2 mm 2 m/s 752 mmHg 72%
    18:00 +16°C° 0,2 mm 2 m/s 752 mmHg 75%
    19:00 +16°C° 0,2 mm 2 m/s 752 mmHg 77%
    20:00 +15°C° 0,2 mm 2 m/s 753 mmHg 77%
    21:00 +14°C° 0,2 mm 3 m/s 753 mmHg 77%
    22:00 +14°C° 0,2 mm 3 m/s 753 mmHg 77%
    23:00 +14°C° 0,1 mm 4 m/s 753 mmHg 77%

    24 Octombrie, Marţi

    Timp Temperatura Precipitaţii Vânt Presiune Umiditate
    00:00 +14°C° 0,1 mm 4 m/s 753 mmHg 77%
    01:00 +14°C° 0,1 mm 5 m/s 753 mmHg 78%
    02:00 +14°C° 0 mm 6 m/s 753 mmHg 77%
    03:00 +14°C° 0 mm 6 m/s 753 mmHg 77%
    04:00 +14°C° 0 mm 6 m/s 753 mmHg 77%
    05:00 +14°C° 0,1 mm 6 m/s 753 mmHg 77%
    06:00 +14°C° 0,1 mm 6 m/s 753 mmHg 77%
    07:00 +14°C° 0,1 mm 6 m/s 753 mmHg 77%
    08:00 +16°C° 0,2 mm 7 m/s 753 mmHg 69%
    09:00 +18°C° 0,2 mm 8 m/s 753 mmHg 60%
    10:00 +20°C° 0,2 mm 8 m/s 754 mmHg 52%
    11:00 +21°C° 0,1 mm 9 m/s 754 mmHg 50%
    12:00 +21°C° 0,1 mm 9 m/s 754 mmHg 48%
    13:00 +21°C° 0,1 mm 9 m/s 754 mmHg 46%
    14:00 +21°C° 0,1 mm 9 m/s 754 mmHg 49%
    15:00 +19°C° 0,1 mm 9 m/s 754 mmHg 51%
    16:00 +18°C° 0,1 mm 9 m/s 755 mmHg 54%
    17:00 +17°C° 0,1 mm 9 m/s 755 mmHg 57%
    18:00 +16°C° 0,1 mm 9 m/s 756 mmHg 60%
    19:00 +16°C° 0,1 mm 9 m/s 756 mmHg 63%
    20:00 +16°C° 0,1 mm 9 m/s 756 mmHg 63%
    21:00 +15°C° 0,1 mm 9 m/s 757 mmHg 63%
    22:00 +15°C° 0,1 mm 9 m/s 757 mmHg 64%
    23:00 +14°C° 0 mm 10 m/s 757 mmHg 64%
    Arată mai mult